[[{"header":{"parameterUnit":"m.s-1","parameterCategory":1,"la1":30.2991,"la2":30.254,"lo1":-89.0895,"lo2":-89.0444,"dy":0.0017,"dx":0.0017,"nx":28,"ny":28,"refTime":"2023-10-16T21:00:00:Z","depth":0,"parameterNumber":2,"parameterNumberName":"U-component_of_WINDS"},"data":[0,0,0,0,0,0,0,0,0,0,0,0,0,0,0,0,0,0,0,0,0,0,0,0,0,0,0,0,0,0,0,0,0,0,0,0,0,0,0,0,0,0,0,0,0,0,0,0,0,0,0,0,0,0,0,0,0,0,0.108,0.1079,0,0.0998,0.0997,0.0996,0.1007,0.1009,0.101,0.1011,0.0924,0.092,0.0917,0,0,0,0,0,0,0,0,0,0,0,0,0,0.1245,0.1242,0.108,0.1079,0.1078,0.0998,0.0997,0.0996,0.1007,0.1009,0.101,0.1012,0.0925,0.0921,0.0916,0,0,0,0,0,0,0,0,0,0,0,0,0,0.1169,0.124,0.108,0.1074,0.1073,0.0998,0.0997,0.0995,0.1007,0.1009,0.1011,0.1013,0.0926,0.0921,0.0916,0.0841,0,0,0.0899,0.0897,0,0,0,0,0,0,0,0,0.1173,0.1163,0.1076,0.1074,0.1073,0.1015,0.1023,0.0943,0.1006,0.1032,0.1011,0.1014,0.0952,0.0945,0.0925,0.0837,0.0833,0.0899,0.0896,0.0893,0.0892,0,0,0,0,0,0,0,0.1178,0.1166,0.1047,0.1075,0.1073,0.1075,0.1066,0.1008,0.0981,0.103,0.103,0.102,0.0952,0.093,0.0923,0.0832,0.0899,0.0894,0.0891,0.0889,0.0678,0.0676,0,0,0,0,0,0,0.1186,0.1171,0.105,0.1045,0.1129,0.107,0.1061,0.1031,0.0982,0.0976,0.1019,0.1021,0.0938,0.0929,0.092,0.0828,0.0893,0.0888,0.0885,0.068,0.0678,0.0675,0,0,0,0,0,0,0.1189,0.1175,0.1053,0.1108,0.1093,0.1065,0.1032,0.1029,0.1007,0.0974,0.0969,0.1002,0.0939,0.0927,0.0861,0.0825,0.0886,0.0881,0.0683,0.068,0.0676,0.0645,0,0,0,0,0,0,0.1194,0.1176,0.1148,0.1107,0.109,0.0996,0.103,0.1026,0.0998,0.1,0.0956,0.0951,0.094,0.0869,0.0855,0.0819,0.0877,0.0686,0.0682,0.0677,0.0649,0.0641,0.0634,0,0,0,0,0,0.12,0.1142,0.1146,0.1132,0.1054,0.0994,0.0984,0.0974,0.0995,0.0966,0.0945,0.0952,0.0832,0.0862,0.0847,0.0808,0.0688,0.0683,0.0678,0.0652,0.0642,0.0634,0,0,0,0,0,0,0.1177,0.1136,0.1141,0.1068,0.1035,0.0996,0.0959,0.0963,0.0922,0.0926,0.0914,0.0904,0.0836,0.0816,0.085,0.0733,0.0763,0.0754,0.0749,0.0739,0.0731,0.0737,0.0872,0,0,0,0,0,0.1165,0.112,0.1086,0.1025,0.1009,0.0987,0.096,0.0955,0.092,0.0905,0.0879,0.0844,0.0798,0.0767,0.0723,0.0647,0.0637,0.0613,0.0605,0.0599,0.0591,0.0548,0.0537,0.0658,0.0658,0.0658,0,0,0.1136,0.1108,0.1081,0.102,0.0994,0.0947,0.0975,0.0924,0.0889,0.0897,0.0833,0.0812,0.0772,0.07,0.0666,0.068,0.0556,0.0593,0.0588,0.0583,0.0542,0.053,0.052,0.0654,0.0655,0.0655,0,0,0.1061,0.1036,0.0983,0.0956,0.0916,0.0902,0.0889,0.085,0.0837,0.0772,0.0777,0.0735,0.0656,0.0627,0.0602,0.0516,0.0521,0.0503,0.0462,0.042,0.0411,0.0402,0.037,0.0359,0.0495,0.0495,0.0495,0,0.1031,0.0962,0.0954,0.0903,0.0876,0.0882,0.0827,0.0801,0.0748,0.0729,0.0746,0.0647,0.062,0.0541,0.052,0.05,0.0484,0.0506,0.0413,0.0404,0.0396,0.0365,0.0354,0.0493,0.0493,0.0493,0.0494,0,0.0926,0.0878,0.0839,0.0789,0.0758,0.0705,0.0688,0.0657,0.0655,0.0639,0.0573,0.0541,0.0491,0.0472,0.0469,0.0392,0.0402,0.0416,0.0445,0.0382,0.0353,0.0342,0.049,0.0491,0.0491,0.0492,0,0,0.0833,0.078,0.0766,0.0743,0.0699,0.0661,0.0609,0.056,0.0533,0.0497,0.0452,0.0386,0.0399,0.037,0.0364,0.0328,0.0261,0.0346,0.0345,0.033,0.0172,0.016,0.0147,0.0265,0.0262,0.0261,0.0175,0,0.0752,0.066,0.0652,0.0568,0.0523,0.0529,0.0483,0.0451,0.0435,0.0394,0.0376,0.0329,0.035,0.0333,0.0298,0.0276,0.0228,0.0283,0.0221,0.0218,0.0229,0.0132,0.0119,0.0039,0.0163,0.0162,0.016,0,0.0645,0.0607,0.0519,0.0482,0.0463,0.0421,0.0376,0.0337,0.0301,0.0292,0.026,0.026,0.0204,0.0238,0.0161,0.0198,0.0172,0.0158,0.0155,0.0147,0.0184,0.0119,0.0014,0.0001,0.0143,0.0144,0.0145,0,0.0584,0.0511,0.0448,0.0429,0.0384,0.0355,0.0335,0.0301,0.0272,0.0232,0.0213,0.0168,0.0142,0.0107,0.0093,0.0119,0.0016,0.0049,0.0006,0.0006,-0.0018,-0.0016,-0.0131,-0.0031,-0.0031,-0.003,-0.003,0,0.0494,0.044,0.042,0.0381,0.0321,0.0312,0.0251,0.0233,0.0203,0.016,0.0163,0.0122,0.0108,0.0065,0.0055,-0.0008,-0.0019,-0.0029,-0.0032,-0.0031,-0.003,-0.0049,-0.0045,-0.0034,-0.0033,-0.0032,-0.0032,0,0.0415,0.04,0.0332,0.0296,0.0285,0.0242,0.0211,0.0173,0.0158,0.0104,0.0091,0.0067,0.0017,0.0001,-0.006,-0.0067,-0.0141,-0.0138,-0.0129,-0.013,-0.0172,-0.0169,-0.0305,-0.0324,-0.021,-0.0211,-0.0212,0,0.0357,0.0315,0.0275,0.0247,0.0226,0.0181,0.0152,0.0142,0.0111,0.0067,0.0035,-0.0015,-0.0055,-0.0136,-0.0159,-0.0206,-0.0205,-0.0249,-0.0212,-0.021,-0.0208,-0.0206,-0.0211,-0.0257,-0.0258,-0.0259,-0.026,0,0.0256,0.0251,0.0209,0.0165,0.013,0.0095,0.0061,0.0037,0.0022,-0.0012,-0.0063,-0.0095,-0.0156,-0.0206,-0.0253,-0.0275,-0.0271,-0.0271,-0.0284,-0.0284,-0.0278,-0.0284,-0.015,-0.0269,-0.0268,-0.0267,-0.0267,-0.0266,0.0184,0.0147,0.0113,0.0067,0.004,0.0008,-0.0029,-0.0048,-0.009,-0.0141,-0.0144,-0.02,-0.0235,-0.0298,-0.0322,-0.0366,-0.0354,-0.0372,-0.0377,-0.0382,-0.0386,-0.0269,-0.0375,-0.0374,-0.0374,-0.0374,-0.0374,0,0.0082,0.006,0.0018,-0.003,-0.0067,-0.0057,-0.0095,-0.0127,-0.0175,-0.0208,-0.0247,-0.0306,-0.0354,-0.0381,-0.0429,-0.0459,-0.0459,-0.0472,-0.0471,-0.0476,-0.0393,-0.0378,-0.0471,-0.0471,-0.0471,-0.0471,-0.0471,-0.0471,0.0024,-0.0038,-0.0048,-0.0123,-0.0144,-0.0198,-0.0221,-0.025,-0.0277,-0.0342,-0.0382,-0.0398,-0.0429,-0.0479,-0.0523,-0.053,-0.0548,-0.0563,-0.0569,-0.0492,-0.0482,-0.0472,-0.0458,-0.0567,-0.0567,-0.0648,-0.0649,-0.0649]},{"header":{"parameterUnit":"m.s-1","parameterCategory":1,"la1":30.2991,"la2":30.254,"lo1":-89.0895,"lo2":-89.0444,"dy":0.0017,"dx":0.0017,"nx":28,"ny":28,"refTime":"2023-10-16T21:00:00:Z","depth":0,"parameterNumber":3,"parameterNumberName":"V-component_of_WINDS"},"data":[0,0,0,0,0,0,0,0,0,0,0,0,0,0,0,0,0,0,0,0,0,0,0,0,0,0,0,0,0,0,0,0,0,0,0,0,0,0,0,0,0,0,0,0,0,0,0,0,0,0,0,0,0,0,0,0,0,0,-3.8038,-3.8039,0,-3.8115,-3.8116,-3.8117,-3.8071,-3.8069,-3.8066,-3.8064,-3.8139,-3.8143,-3.8147,0,0,0,0,0,0,0,0,0,0,0,0,0,-3.7846,-3.7849,-3.8038,-3.8039,-3.804,-3.8115,-3.8116,-3.8117,-3.8071,-3.8068,-3.8066,-3.8063,-3.8138,-3.8142,-3.8147,0,0,0,0,0,0,0,0,0,0,0,0,0,-3.7927,-3.7851,-3.8038,-3.8026,-3.8026,-3.8115,-3.8116,-3.8117,-3.8072,-3.8068,-3.8065,-3.8062,-3.8136,-3.8142,-3.8148,-3.8251,0,0,-3.8166,-3.8169,0,0,0,0,0,0,0,0,-3.7922,-3.7934,-3.8027,-3.8027,-3.8027,-3.808,-3.8076,-3.8162,-3.8073,-3.8054,-3.8064,-3.806,-3.8122,-3.8129,-3.815,-3.8255,-3.8258,-3.8167,-3.8171,-3.8173,-3.8175,0,0,0,0,0,0,0,-3.7916,-3.793,-3.8068,-3.8028,-3.8028,-3.8015,-3.8023,-3.8092,-3.8105,-3.8056,-3.8052,-3.8062,-3.8121,-3.8145,-3.8152,-3.8259,-3.8167,-3.8172,-3.8176,-3.8178,-3.8449,-3.8453,0,0,0,0,0,0,-3.7912,-3.7926,-3.8066,-3.8071,-3.7965,-3.8021,-3.803,-3.8066,-3.8105,-3.8107,-3.8065,-3.806,-3.8136,-3.8145,-3.8154,-3.8276,-3.8173,-3.8179,-3.8182,-3.8446,-3.845,-3.8454,0,0,0,0,0,0,-3.7908,-3.7925,-3.8063,-3.7997,-3.8014,-3.8028,-3.8069,-3.807,-3.8093,-3.8112,-3.8114,-3.8087,-3.8134,-3.8146,-3.8227,-3.8278,-3.8182,-3.8187,-3.8442,-3.8447,-3.8452,-3.8521,0,0,0,0,0,0,-3.7903,-3.7924,-3.7965,-3.7999,-3.8018,-3.8136,-3.8072,-3.8073,-3.8104,-3.8098,-3.8133,-3.8135,-3.8132,-3.8218,-3.8233,-3.8285,-3.8192,-3.8437,-3.8444,-3.845,-3.8515,-3.8528,-3.854,0,0,0,0,0,-3.7896,-3.7981,-3.7967,-3.7985,-3.8069,-3.814,-3.815,-3.8146,-3.8108,-3.8148,-3.816,-3.8134,-3.827,-3.8227,-3.8243,-3.8297,-3.8434,-3.8442,-3.845,-3.8509,-3.8526,-3.854,0,0,0,0,0,0,-3.7952,-3.7986,-3.7971,-3.8069,-3.8102,-3.8132,-3.8182,-3.8164,-3.8207,-3.82,-3.8191,-3.8199,-3.8284,-3.8299,-3.825,-3.8398,-3.8346,-3.8358,-3.8385,-3.8401,-3.8414,-3.8408,-3.8197,0,0,0,0,0,-3.7976,-3.8032,-3.8058,-3.8142,-3.8159,-3.8168,-3.8198,-3.8192,-3.8225,-3.8239,-3.8256,-3.8288,-3.8337,-3.837,-3.8417,-3.8517,-3.8522,-3.8561,-3.8574,-3.8585,-3.8595,-3.8646,-3.8663,-3.848,-3.848,-3.848,0,0,-3.8026,-3.8051,-3.8087,-3.8154,-3.8178,-3.8234,-3.818,-3.8242,-3.8283,-3.8247,-3.8325,-3.834,-3.8374,-3.8465,-3.8505,-3.848,-3.8646,-3.8595,-3.8603,-3.8607,-3.8656,-3.8673,-3.8688,-3.8486,-3.8485,-3.8484,0,0,-3.8145,-3.8171,-3.8243,-3.8269,-3.8307,-3.8312,-3.8329,-3.8362,-3.837,-3.8448,-3.8422,-3.8469,-3.8556,-3.8581,-3.8605,-3.8732,-3.8708,-3.8747,-3.8814,-3.8864,-3.8878,-3.8891,-3.8934,-3.895,-3.8757,-3.8757,-3.8757,0,-3.8202,-3.8287,-3.8282,-3.8346,-3.8375,-3.8346,-3.8418,-3.8442,-3.8494,-3.8513,-3.8484,-3.8591,-3.8612,-3.8707,-3.8738,-3.8759,-3.8776,-3.8743,-3.8877,-3.8889,-3.8901,-3.8942,-3.8959,-3.8761,-3.8761,-3.8761,-3.876,0,-3.8353,-3.8412,-3.8466,-3.8517,-3.8552,-3.8619,-3.8623,-3.8658,-3.8649,-3.8656,-3.8735,-3.8759,-3.881,-3.8832,-3.8823,-3.8925,-3.8907,-3.8878,-3.8825,-3.8923,-3.8961,-3.8977,-3.8768,-3.8766,-3.8765,-3.8764,0,0,-3.851,-3.8557,-3.8576,-3.8598,-3.8637,-3.8682,-3.8747,-3.8797,-3.8827,-3.8863,-3.8916,-3.8989,-3.8961,-3.8988,-3.8982,-3.9026,-3.9122,-3.899,-3.8991,-3.9012,-3.9233,-3.9254,-3.9273,-3.9107,-3.911,-3.9113,-3.9229,0,-3.863,-3.8746,-3.8742,-3.8848,-3.8901,-3.8874,-3.893,-3.8959,-3.8968,-3.9012,-3.9021,-3.9072,-3.9033,-3.9049,-3.9091,-3.9101,-3.9166,-3.9093,-3.9154,-3.9156,-3.9145,-3.9293,-3.9316,-3.9425,-3.9245,-3.9247,-3.9249,0,-3.8786,-3.8828,-3.894,-3.8969,-3.8991,-3.9042,-3.9087,-3.9131,-3.9162,-3.9165,-3.9195,-3.918,-3.9244,-3.919,-3.9276,-3.9226,-3.9251,-3.9259,-3.9263,-3.9268,-3.9208,-3.93,-3.946,-3.9476,-3.9273,-3.9271,-3.9269,0,-3.8887,-3.8971,-3.9048,-3.9068,-3.9105,-3.9141,-3.9158,-3.9186,-3.9216,-3.9254,-3.9273,-3.9318,-3.9342,-3.9376,-3.9373,-3.9335,-3.946,-3.9406,-3.9462,-3.9462,-3.9489,-3.9487,-3.9654,-3.9507,-3.9507,-3.9507,-3.9506,0,-3.9021,-3.909,-3.9094,-3.9141,-3.9217,-3.9211,-3.9286,-3.9298,-3.9323,-3.9371,-3.935,-3.9395,-3.9389,-3.9434,-3.9432,-3.9502,-3.9513,-3.9516,-3.9514,-3.9517,-3.9517,-3.9532,-3.9524,-3.9511,-3.951,-3.9509,-3.9508,0,-3.9147,-3.9152,-3.9234,-3.9263,-3.9271,-3.9325,-3.9348,-3.9392,-3.9398,-3.9459,-3.9472,-3.9481,-3.9532,-3.9533,-3.9592,-3.959,-3.9675,-3.9666,-3.9665,-3.9663,-3.9718,-3.9712,-3.9899,-3.9923,-3.9762,-3.9764,-3.9765,0,-3.9232,-3.9284,-3.9318,-3.9348,-3.9368,-3.9418,-3.9448,-3.9444,-3.9475,-3.9514,-3.9552,-3.9602,-3.9641,-3.9723,-3.9734,-3.9778,-3.9768,-3.9831,-3.9774,-3.9775,-3.9767,-3.9763,-3.9767,-3.9841,-3.9843,-3.9845,-3.9846,0,-3.938,-3.938,-3.9425,-3.9471,-3.9508,-3.9543,-3.9576,-3.9602,-3.9601,-3.9637,-3.969,-3.972,-3.9779,-3.9828,-3.987,-3.9885,-3.9865,-3.9863,-3.9878,-3.9881,-3.9878,-3.9878,-3.9693,-3.9859,-3.9858,-3.9857,-3.9856,-3.9855,-3.9487,-3.9532,-3.9562,-3.9612,-3.9636,-3.9667,-3.9709,-3.972,-3.9764,-3.9813,-3.9807,-3.9864,-3.9892,-3.9946,-3.9965,-4.0009,-3.9987,-4.0009,-4.0014,-4.0019,-4.0024,-3.9872,-4.0016,-4.0016,-4.0016,-4.0015,-4.0015,0,-3.9633,-3.9651,-3.9698,-3.9744,-3.9783,-3.9762,-3.9796,-3.9829,-3.9881,-3.9909,-3.9948,-4.0007,-4.0053,-4.0067,-4.0111,-4.0143,-4.0135,-4.0154,-4.0151,-4.0155,-4.0042,-4.0024,-4.016,-4.016,-4.016,-4.016,-4.016,-4.016,-3.9714,-3.9788,-3.9791,-3.9875,-3.9892,-3.9949,-3.997,-3.9997,-4.0019,-4.0087,-4.0125,-4.0134,-4.0156,-4.0201,-4.0242,-4.0244,-4.0261,-4.0284,-4.0283,-4.0177,-4.0163,-4.0149,-4.0132,-4.0288,-4.0288,-4.0391,-4.0392,-4.0393]}]]